Volver al catálogo

STARLINK-5195

ActivoComunicacionesVLEO
NORAD 54051·PAYLOAD·🇺🇸 United States

Lanzado Oct 20, 2022 desde Cape Canaveral Space Force Station

Loading…

Próximos Pases (próximas 24 horas)

TLE

ActualizadoSource: CelesTrak SupGP

Época: Sep 14, 2026, 21:08 UTC

1 54051C 22136A   26257.88104167  .00367720  00000+0  16824-1 0  2579
2 54051  53.1608 214.5521 0001454  90.9774 270.0880 15.19823459    13

Sigue STARLINK-5195 en tiempo real con AllMySat

Download on the App Store